DW4362 Weather Reports


Display with metric or nautical units.
time (UTC)temp
F
wind
direction
speed
MPH
gust
MPH
rain 1hr
in
rain 24hr
in
rain mn
in
humidity
%
barometer
mb
20260903173158 89 84 2.0 2.0 0.00 0.25 0.01 70 1014.6
20260903163157 89 259 0.0 2.0 0.00 0.25 0.01 73 1015.1
20260903153157 87 15 3.0 5.0 0.00 0.25 0.01 78 1015.1
20260903150227 84 349 0.0 2.0 0.00 0.25 0.01 83 1015.0
20260903143157 83 30 0.0 0.0 0.00 0.25 0.01 86 1014.9
20260903140227 81 1 0.0 0.0 0.00 0.25 0.01 89 1014.9
20260903133227 81 14 0.0 0.0 0.00 0.25 0.01 89 1015.0
20260903130227 78 316 3.0 3.0 0.00 0.25 0.01 96 1014.9
20260903123226 76 314 0.0 0.0 0.00 0.25 0.01 95 1014.7
20260903120226 76 321 0.0 0.0 0.00 0.25 0.01 95 1014.6
20260903113226 75 140 0.0 0.0 0.00 0.25 0.01 95 1014.2
20260903110225 75 141 0.0 0.0 0.00 0.25 0.01 95 1014.0
20260903103226 75 140 0.0 0.0 0.00 0.25 0.01 95 1014.2
20260903100225 75 140 0.0 0.0 0.00 0.25 0.01 94 1013.8
20260903093225 75 140 0.0 0.0 0.01 0.25 0.01 94 1014.0
20260903090225 75 140 0.0 0.0 0.01 0.25 0.01 94 1013.9
20260903083225 75 140 0.0 0.0 0.00 0.24 0.00 94 1014.1
20260903073225 76 140 0.0 0.0 0.00 0.24 0.00 94 1014.0
20260903070225 76 140 0.0 0.0 0.00 0.24 0.00 94 1014.4
20260903063225 76 140 0.0 0.0 0.00 0.24 0.00 94 1014.6
20260903060225 76 140 0.0 0.0 0.00 0.24 0.00 95 1014.8
20260903053224 77 140 0.0 0.0 0.00 0.24 0.00 94 1015.2
20260903050225 77 140 0.0 0.0 0.00 0.24 0.00 95 1014.9
20260903043224 77 140 0.0 0.0 0.00 0.24 0.24 95 1014.9
20260903040224 77 139 0.0 0.0 0.00 0.24 0.24 95 1014.7
20260903033224 78 139 0.0 0.0 0.00 0.24 0.24 95 1014.8
20260903030224 78 139 0.0 0.0 0.00 0.24 0.24 95 1014.8
20260903023224 78 139 0.0 0.0 0.00 0.24 0.24 95 1014.7
20260903020224 79 139 0.0 0.0 0.00 0.24 0.24 95 1014.6
20260903000226 81 139 0.0 0.0 0.00 0.24 0.24 93 1013.7
20260902233224 82 139 0.0 0.0 0.00 0.24 0.24 91 1013.5
20260902230224 84 139 0.0 0.0 0.00 0.24 0.24 86 1013.3
20260902223224 85 161 0.0 0.0 0.00 0.24 0.24 84 1013.7
20260902220224 85 160 0.0 0.0 0.00 0.24 0.24 87 1013.9
20260902213224 83 199 0.0 0.0 0.00 0.24 0.24 91 1014.1
20260902210224 81 208 0.0 0.0 0.03 0.24 0.24 94 1014.4
20260902200223 82 210 5.0 6.0 0.21 0.21 0.21 85 1015.4
20260902193223 86 175 0.0 5.0 0.00 0.00 0.00 80 1014.9
20260902190223 93 228 2.0 3.0 0.00 0.00 0.00 60 1015.0
20260902183223 94 292 0.0 2.0 0.00 0.00 0.00 58 1015.3
20260902180223 93 11 0.0 0.0 0.00 0.00 0.00 64 1015.9